N8DH Weather Reports


Display with metric or nautical units.
time (UTC)temp
F
wind
direction
speed
MPH
gust
MPH
rain 1hr
in
rain 24hr
in
rain mn
in
humidity
%
barometer
mb
20260905123039 70 229 0.0 2.0 0.00 0.20 0.06 97 1006.8
20260905121600 69 228 0.0 2.0 0.00 0.20 0.06 97 1006.8
20260905120013 69 225 0.0 2.0 0.00 0.21 0.06 97 1006.8
20260905114604 69 225 0.0 2.0 0.00 0.21 0.06 97 1006.4
20260905113038 69 288 0.0 2.0 0.00 0.21 0.06 97 1006.2
20260905111611 69 288 0.0 2.0 0.00 0.21 0.06 97 1006.2
20260905110145 69 355 0.0 2.0 0.00 0.21 0.06 97 1006.3
20260905104536 69 205 0.0 2.0 0.00 0.21 0.06 97 1006.6
20260905103108 69 205 0.0 0.0 0.00 0.21 0.06 97 1007.0
20260905101539 69 205 0.0 2.0 0.00 0.21 0.06 97 1007.1
20260905100104 69 205 0.0 3.0 0.00 0.21 0.06 97 1007.5
20260905094524 69 228 1.0 2.0 0.00 0.21 0.06 97 1007.6
20260905093131 69 235 0.0 2.0 0.00 0.21 0.06 97 1007.2
20260905091644 68 217 1.0 2.0 0.00 0.21 0.06 97 1006.8
20260905090019 68 287 0.0 2.0 0.00 0.21 0.06 97 1006.4
20260905084545 68 182 0.0 0.0 0.00 0.21 0.06 97 1006.2
20260905083114 68 182 0.0 0.0 0.00 0.21 0.06 97 1006.3
20260905081512 68 182 0.0 1.0 0.00 0.21 0.06 97 1005.9
20260905080045 68 182 0.0 2.0 0.00 0.21 0.06 97 1005.6
20260905074603 69 182 0.0 2.0 0.00 0.21 0.06 97 1006.1
20260905073143 69 178 0.0 1.0 0.00 0.21 0.06 97 1006.0
20260905071521 68 178 0.0 2.0 0.00 0.21 0.06 97 1005.6
20260905070111 68 192 0.0 0.0 0.00 0.21 0.06 97 1006.0
20260905064531 68 192 0.0 2.0 0.00 0.21 0.06 97 1006.1
20260905063106 68 58 0.0 2.0 0.00 0.21 0.06 96 1006.2
20260905061539 69 58 0.0 2.0 0.00 0.21 0.06 96 1006.5
20260905060134 69 58 0.0 1.0 0.00 0.21 0.06 96 1006.6
20260905054656 70 58 0.0 2.0 0.00 0.21 0.06 96 1007.0
20260905053001 70 304 0.0 2.0 0.00 0.21 0.06 96 1007.2
20260905051539 70 304 0.0 2.0 0.00 0.21 0.06 97 1007.2
20260905050109 70 28 0.0 2.0 0.05 0.21 0.06 97 1007.2
20260905044503 70 28 0.0 2.0 0.06 0.21 0.06 97 1007.3
20260905043110 70 28 0.0 0.0 0.06 0.21 0.06 97 1007.5
20260905041638 70 28 0.0 2.0 0.06 0.21 0.06 97 1007.6
20260905040056 70 259 0.0 2.0 0.00 0.15 0.00 97 1007.9
20260905034639 69 259 0.0 2.0 0.00 0.15 0.15 96 1007.7
20260905033143 69 259 0.0 2.0 0.00 0.15 0.15 96 1007.5
20260905031604 68 259 0.0 2.0 0.00 0.15 0.15 96 1007.5
20260905030139 69 259 0.0 0.0 0.00 0.15 0.15 96 1007.5
20260905024644 69 259 0.0 0.0 0.00 0.15 0.15 96 1007.4
20260905023025 70 259 0.0 0.0 0.00 0.15 0.15 95 1007.5
20260905021603 70 259 0.0 0.0 0.00 0.15 0.15 96 1007.5
20260905020137 71 259 0.0 0.0 0.00 0.15 0.15 96 1007.5
20260905014650 71 259 0.0 0.0 0.00 0.15 0.15 96 1007.3
20260905013012 71 259 0.0 0.0 0.00 0.15 0.15 95 1007.5
20260905011605 72 259 0.0 2.0 0.00 0.15 0.15 95 1007.6
20260905010139 72 259 0.0 2.0 0.00 0.15 0.15 95 1007.5
20260905004544 72 259 0.0 2.0 0.00 0.15 0.15 95 1007.4
20260905003114 72 259 0.0 2.0 0.00 0.15 0.15 95 1007.4
20260905001646 72 258 0.0 0.0 0.00 0.15 0.15 94 1007.3
20260905000138 73 259 0.0 2.0 0.00 0.15 0.15 93 1007.5
20260904234648 74 259 0.0 2.0 0.00 0.20 0.15 91 1007.5
20260904233020 75 209 0.0 1.0 0.00 0.20 0.15 90 1007.4
20260904231604 76 209 0.0 1.0 0.00 0.20 0.15 87 1007.7
20260904230059 76 246 0.0 2.0 0.00 0.96 0.15 86 1007.6
20260904224608 76 200 0.0 3.0 0.00 0.96 0.15 87 1007.2
20260904223146 76 59 2.0 3.0 0.00 0.96 0.15 87 1006.7
20260904221501 76 239 0.0 2.0 0.00 0.96 0.15 87 1007.2
20260904220156 76 239 0.0 2.0 0.00 0.96 0.15 84 1007.2
20260904214522 76 247 0.0 2.0 0.00 0.96 0.15 85 1006.7
20260904213059 77 205 0.0 2.0 0.00 0.96 0.15 84 1006.6
20260904211639 76 163 0.0 2.0 0.00 0.96 0.15 84 1006.6
20260904210031 76 95 1.0 2.0 0.00 0.96 0.15 83 1006.3
20260904204602 76 95 0.0 3.0 0.00 0.96 0.15 84 1006.1
20260904203141 76 112 2.0 4.0 0.00 0.96 0.15 85 1005.6
20260904201522 76 120 3.0 8.0 0.00 0.96 0.15 83 1005.6
20260904200048 76 156 1.0 5.0 0.00 0.96 0.15 85 1006.0
20260904194641 76 200 2.0 6.0 0.00 0.96 0.15 86 1006.6
20260904193035 75 218 1.0 4.0 0.00 0.96 0.15 87 1007.4
20260904191558 75 173 1.0 3.0 0.00 0.96 0.15 88 1007.7
20260904190037 73 94 2.0 3.0 0.00 0.96 0.15 88 1007.9
20260904184615 73 100 1.0 3.0 0.00 0.96 0.15 90 1007.6
20260904183035 72 167 2.0 8.0 0.02 0.96 0.15 92 1007.0
20260904181556 71 195 2.0 6.0 0.02 0.96 0.15 92 1007.3
20260904180135 71 168 2.0 5.0 0.02 0.96 0.15 92 1008.1
20260904174516 72 266 3.0 7.0 0.02 0.96 0.15 91 1010.1
20260904173054 73 261 1.0 8.0 0.00 0.94 0.13 91 1010.4
20260904171636 74 194 3.0 8.0 0.00 0.94 0.13 90 1010.4
20260904170052 74 298 1.0 4.0 0.00 0.94 0.13 91 1010.2
20260904164622 75 275 1.0 4.0 0.00 0.94 0.13 91 1009.8
20260904163154 74 234 2.0 9.0 0.02 0.94 0.13 94 1009.8
20260904161530 73 279 1.0 4.0 0.02 0.94 0.13 93 1009.9
20260904160108 73 279 2.0 5.0 0.02 0.94 0.13 94 1010.1
20260904154540 71 300 1.0 7.0 0.02 0.94 0.13 95 1010.3
20260904153109 71 186 0.0 3.0 0.00 0.92 0.11 94 1010.0
20260904151512 72 155 0.0 3.0 0.00 0.92 0.11 94 1009.8
20260904144642 70 52 0.0 3.0 0.01 0.92 0.11 95 1008.5
20260904143014 70 63 1.0 4.0 0.03 0.92 0.11 95 1008.8
20260904141559 70 355 1.0 3.0 0.04 0.92 0.11 96 1008.7
20260904140040 69 101 1.0 4.0 0.04 0.91 0.10 96 1008.4
20260904134613 69 159 2.0 7.0 0.06 0.91 0.10 96 1008.9
20260904133037 69 153 2.0 3.0 0.05 0.89 0.08 96 1008.7
20260904131600 68 317 1.0 4.0 0.06 0.88 0.07 96 1009.2
20260904130134 68 203 1.0 2.0 0.05 0.87 0.06 96 1009.1
20260904124654 68 217 1.0 4.0 0.04 0.85 0.04 96 1009.2